Inquirer Daily News

Weather

Get conditions and forecasts for any City, State, ZIP code or Country:  
Northeast Philadelphia, PA
on Sunday, January 27, 2013

Sunday
Previous Day Next Day
Daily Summary
 ActualAverage (KTTN)Record (KTTN)
Temperature
Mean Temperature °F 31°F  
Max Temperature 34°F 39°F 68°F (1974)
Min Temperature 17°F 24°F 1°F (1994)
Degree Days
Heating Degree Days 40 34  
Month to date heating degree days 917  
Since 1 July heating degree days 2812  
Cooling Degree Days 0 0  
Month to date cooling degree days 0  
Year to date cooling degree days 0  
Moisture
Dew Point 11°F   
Average Humidity 57    
Maximum Humidity 72    
Minimum Humidity 42    
Precipitation
Precipitation 1.05 in 0.10 in 1.39 in (1976)
Month to date precipitation 2.77  
Year to date precipitation 2.77  
Wind
Wind Speed 6 mph   
Max Wind Speed 15 mph   
Max Gust Speed 17 mph   
Visibility 10 miles   
Events     

Key: T is trace of precipitation, MM is missing value
Source: NWS Daily Summary
Time(EST)TemperatureDew PointHumidity Pressure Visibility Wind DirectionWind SpeedGust SpeedPrecipitationEvents Conditions
12:54 AM 18.0°F 7.0°F 62% 30.45 in 10.0 miles West 3.5 mph - 0.01 in   Clear
1:54 AM 18.0°F 7.0°F 62% 30.47 in 10.0 miles WNW 4.6 mph - 0.11 in   Clear
2:54 AM 18.0°F 7.0°F 62% 30.48 in 10.0 miles WNW 5.8 mph - 0.07 in   Clear
3:54 AM 17.1°F 7.0°F 65% 30.49 in 10.0 miles WNW 5.8 mph - 0.06 in   Clear
4:54 AM 18.0°F 8.1°F 65% 30.49 in 10.0 miles NW 6.9 mph - 0.07 in   Clear
5:54 AM 18.0°F 7.0°F 62% 30.50 in 10.0 miles WNW 8.1 mph - 0.06 in   Clear
6:54 AM 17.6°F 6.8°F 63% 30.50 in 10.0 miles NW 8.1 mph - N/A   Clear
7:54 AM 19.0°F 9.0°F 65% 30.54 in 10.0 miles NW 9.2 mph - 0.06 in   Clear
8:54 AM 21.9°F 10.9°F 63% 30.56 in 10.0 miles NW 10.4 mph - 0.01 in   Clear
9:54 AM 25.0°F 12.9°F 60% 30.59 in 10.0 miles NNW 15.0 mph - N/A   Clear
10:54 AM 28.0°F 12.9°F 53% 30.59 in 10.0 miles NW 9.2 mph - 0.03 in   Clear
11:54 AM 30.0°F 14.0°F 51% 30.56 in 10.0 miles NW 13.8 mph 17.3 mph 0.05 in   Clear
12:54 PM 32.0°F 14.0°F 48% 30.53 in 10.0 miles WNW 8.1 mph - N/A   Clear
1:54 PM 33.1°F 12.9°F 43% 30.52 in 10.0 miles NNW 8.1 mph - 0.09 in   Clear
2:54 PM 34.0°F 14.0°F 44% 30.52 in 10.0 miles WNW 5.8 mph - 0.08 in   Clear
3:54 PM 34.0°F 12.9°F 42% 30.52 in 10.0 miles WNW 6.9 mph - 0.08 in   Clear
4:54 PM 30.9°F 12.9°F 47% 30.52 in 10.0 miles WNW 5.8 mph - 0.10 in   Clear
5:54 PM 32.0°F 12.9°F 45% 30.54 in 10.0 miles Calm Calm - 0.01 in   Clear
6:54 PM 28.0°F 12.9°F 53% 30.55 in 10.0 miles Calm Calm - 0.03 in   Clear
7:54 PM 28.0°F 15.1°F 58% 30.54 in 10.0 miles SW 3.5 mph - N/A   Clear
8:54 PM 27.0°F 14.0°F 58% 30.54 in 10.0 miles West 3.5 mph - 0.05 in   Clear
9:54 PM 24.1°F 14.0°F 65% 30.53 in 10.0 miles Calm Calm - 0.01 in   Clear
10:54 PM 23.0°F 14.0°F 68% 30.52 in 10.0 miles Calm Calm - 0.01 in   Clear
11:54 PM 23.0°F 15.1°F 72% 30.53 in 9.0 miles Calm Calm - 0.06 in   Clear
Astronomy
Sunrise:07:12 AM (EST) Moon Rise:06:05 PM (EST)1/27
Sunset:05:13 PM (EST) Moon Set:07:04 AM (EST)1/27
Moon Phase
Jan. 27 Feb. 03 Feb. 10 Feb. 17 Feb. 25

Copyright © 2014 The Weather Underground, Inc.